EW0991 Weather Reports


time (UTC)temp
C
wind
direction
speed
KPH
gust
KPH
rain 1hr
cm
rain 24hr
cm
rain mn
cm
humidity
%
barometer
mb
20260510104509 -17 0.0 0.0 0.00 0.30 0.00 1012.4
20260510103010 -17 0.0 0.0 0.00 0.30 0.00 1012.4
20260510101508 -17 0.0 0.0 0.00 0.30 0.00 1012.8
20260510100003 -17 0.0 0.0 0.00 0.30 0.00 1012.7
20260510094601 -17 0.0 0.0 0.00 0.30 0.00 1012.2
20260510093057 -17 0.0 0.0 0.00 0.30 0.00 1012.1
20260510091549 -17 0.0 0.0 0.00 0.30 0.00 1011.9
20260510090048 10 154 0.0 0.0 0.00 0.30 0.00 95 1012.1
20260510084552 10 152 0.0 0.0 0.00 0.30 0.00 95 1012.0
20260510083047 10 168 0.0 0.0 0.00 0.30 0.00 95 1012.1
20260510081542 10 154 0.0 0.0 0.00 0.30 0.00 95 1012.1
20260510080043 9 154 0.0 0.0 0.00 0.30 0.00 95 1012.2
20260510074552 9 153 0.0 0.0 0.00 0.30 0.00 95 1012.5
20260510073046 9 264 0.0 0.0 0.00 0.30 0.00 95 1012.5
20260510071552 8 267 0.0 0.0 0.00 0.30 0.00 95 1012.7
20260510070041 9 327 0.0 0.0 0.00 0.30 0.00 95 1012.8
20260510064552 9 81 0.0 0.0 0.00 0.30 0.00 95 1011.9
20260510063038 8 81 0.0 0.0 0.00 0.30 0.00 95 1011.9
20260510061538 8 222 0.0 0.0 0.00 0.30 0.00 95 1012.1
20260510060041 8 223 0.0 0.0 0.00 0.30 0.00 95 1012.3
20260510054535 8 254 0.0 0.0 0.00 0.30 0.00 94 1012.4
20260510053033 8 243 0.0 0.0 0.00 0.30 0.00 95 1011.6
20260510051538 8 243 0.0 0.0 0.00 0.30 0.00 95 1011.6
20260510050028 8 243 0.0 0.0 0.00 0.30 0.00 94 1011.7
20260510044530 8 243 0.0 0.0 0.00 0.30 0.00 94 1011.8
20260510043026 9 243 0.0 0.0 0.00 0.30 0.00 94 1011.7
20260510041523 9 243 0.0 0.0 0.00 0.30 0.00 94 1011.9
20260510040021 10 243 0.0 0.0 0.00 0.30 0.30 94 1011.7
20260510034519 10 243 0.0 0.0 0.00 0.30 0.30 94 1011.8
20260510033020 10 243 0.0 0.0 0.00 0.30 0.30 94 1011.7
20260510031517 10 171 0.0 0.0 0.00 0.30 0.30 93 1011.8
20260510030017 10 171 0.0 0.0 0.00 0.30 0.30 93 1011.8
20260510024521 11 126 0.0 0.0 0.00 0.30 0.30 93 1011.7
20260510023019 11 126 0.0 0.0 0.00 0.30 0.30 92 1011.6
20260510021515 11 126 0.0 0.0 0.00 0.30 0.30 92 1011.4
20260510020015 11 120 0.0 0.0 0.00 0.30 0.30 92 1011.3
20260510014521 11 65 0.0 0.0 0.00 0.30 0.30 91 1011.2
20260510013014 12 65 0.0 0.0 0.00 0.30 0.30 90 1011.2
20260510011518 12 131 0.0 0.0 0.00 0.30 0.30 90 1011.1
20260510010014 12 152 0.0 0.0 0.00 0.30 0.30 89 1011.0
20260510004512 12 158 0.0 0.0 0.00 0.30 0.30 88 1010.8
20260510003013 12 162 0.0 0.0 0.00 0.30 0.30 86 1010.7
20260510001511 13 159 0.0 0.0 0.00 0.30 0.30 83 1010.4
20260510000010 14 159 0.0 0.0 0.00 0.30 0.30 79 1010.3
20260509234511 15 143 0.0 0.0 0.00 0.30 0.30 77 1010.3
20260509233010 15 68 0.0 0.0 0.00 0.30 0.30 78 1010.3
20260509231510 15 68 0.0 0.0 0.00 0.30 0.30 76 1010.3
20260509230009 16 68 0.0 0.0 0.00 0.30 0.30 75 1010.3
20260509224511 17 221 0.0 0.0 0.00 0.30 0.30 70 1010.3
20260509223006 16 221 0.0 0.0 0.00 0.30 0.30 74 1010.2
20260509221504 15 249 0.0 0.0 0.00 0.30 0.30 78 1010.3
20260509220107 14 264 0.0 0.0 0.00 0.30 0.30 83 1010.3
20260509214558 13 274 0.0 0.0 0.00 0.30 0.30 82 1010.6
20260509213058 13 259 0.0 0.0 0.00 0.30 0.30 84 1010.5
20260509211556 13 251 0.0 0.0 0.00 0.30 0.30 84 1010.5
20260509210059 13 247 0.0 0.0 0.00 0.30 0.30 83 1010.7
20260509204558 13 278 0.0 0.0 0.00 0.30 0.30 83 1011.1
20260509203055 13 323 0.0 0.0 0.00 0.30 0.30 85 1011.0
20260509201550 13 19 0.0 0.0 0.00 0.30 0.30 89 1011.1
20260509200055 12 281 0.0 0.0 0.00 0.30 0.30 91 1011.0
20260509194548 12 236 0.0 0.0 0.00 0.30 0.30 95 1011.2
20260509193059 12 245 0.0 0.0 0.05 0.30 0.30 95 1011.2
20260509191607 12 122 0.0 0.0 0.05 0.30 0.30 95 1011.4
20260509190051 11 237 0.0 0.0 0.08 0.30 0.30 95 1011.9
20260509184543 11 237 0.0 0.0 0.08 0.30 0.30 95 1012.4
20260509183043 11 244 0.0 0.0 0.05 0.25 0.25 95 1012.4
20260509181542 11 249 0.0 0.0 0.05 0.25 0.25 95 1012.5
20260509180041 11 256 0.0 0.0 0.05 0.23 0.23 95 1012.4
20260509174541 11 257 0.0 0.0 0.08 0.23 0.23 95 1012.3
20260509173052 11 257 0.0 0.0 0.13 0.20 0.20 94 1012.4
20260509171548 11 267 0.0 0.0 0.15 0.20 0.20 94 1012.1
20260509170042 11 264 0.0 0.0 0.18 0.18 0.18 94 1012.2
20260509164547 11 281 0.0 0.0 0.15 0.15 0.15 93 1012.1
20260509163048 12 285 0.0 0.0 0.08 0.08 0.08 93 1012.4
20260509161535 12 261 0.0 0.0 0.05 0.05 0.05 93 1012.7
20260509160034 12 249 0.0 0.0 0.00 0.00 0.00 90 1012.6
20260509154532 13 223 0.0 0.0 0.00 0.00 0.00 77 1012.8
20260509153036 14 228 0.0 0.0 0.00 0.00 0.00 75 1012.9
20260509151534 14 259 0.0 0.0 0.00 0.00 0.00 76 1012.7
20260509150032 13 272 0.0 0.0 0.00 0.00 0.00 75 1012.6
20260509144530 13 219 0.0 0.0 0.00 0.00 0.00 74 1012.6
20260509143030 14 242 0.0 0.0 0.00 0.00 0.00 74 1012.4
20260509141535 13 139 0.0 0.0 0.00 0.00 0.00 75 1012.3
20260509140033 13 233 0.0 0.0 0.00 0.00 0.00 76 1012.3
20260509134530 13 274 0.0 0.0 0.00 0.00 0.00 75 1012.3
20260509133027 13 200 0.0 0.0 0.00 0.00 0.00 77 1012.2
20260509131520 12 69 0.0 0.0 0.00 0.00 0.00 79 1012.3
20260509130032 12 71 0.0 0.0 0.00 0.00 0.00 79 1012.2
20260509124526 12 71 0.0 0.0 0.00 0.00 0.00 79 1012.2
20260509123024 12 71 0.0 0.0 0.00 0.00 0.00 79 1012.2
20260509121520 12 71 0.0 0.0 0.00 0.00 0.00 78 1012.4
20260509120015 11 72 0.0 0.0 0.00 0.00 0.00 81 1012.4
20260509114514 11 71 0.0 0.0 0.00 0.00 0.00 82 1012.3
20260509113012 10 71 0.0 0.0 0.00 0.00 0.00 83 1012.2
20260509111512 10 71 0.0 0.0 0.00 0.00 0.00 84 1012.2
20260509110019 -17 0.0 0.0 0.00 0.00 0.00 1012.0